[[{"header":{"parameterUnit":"m.s-1","parameterCategory":1,"la1":30.2991,"la2":30.254,"lo1":-89.0895,"lo2":-89.0444,"dy":0.0017,"dx":0.0017,"nx":28,"ny":28,"refTime":"2024-03-08T03:00:00:Z","depth":0,"parameterNumber":2,"parameterNumberName":"U-component_of_WINDS"},"data":[0,0,0,0,0,0,0,0,0,0,0,0,0,0,0,0,0,0,0,0,0,0,0,0,0,0,0,0,0,0,0,0,0,0,0,0,0,0,0,0,0,0,0,0,0,0,0,0,0,0,0,0,0,0,0,0,0,0,4.4128,4.4128,0,4.4156,4.4157,4.4157,4.4125,4.4124,4.4122,4.4121,4.4149,4.4151,4.4153,0,0,0,0,0,0,0,0,0,0,0,0,0,4.4048,4.405,4.4128,4.4128,4.4129,4.4156,4.4157,4.4157,4.4125,4.4124,4.4122,4.4121,4.4148,4.4151,4.4153,0,0,0,0,0,0,0,0,0,0,0,0,0,4.408,4.405,4.4128,4.4116,4.4115,4.4156,4.4157,4.4157,4.4125,4.4123,4.4122,4.412,4.4148,4.415,4.4153,4.4207,0,0,4.4162,4.4163,0,0,0,0,0,0,0,0,4.4078,4.4083,4.4117,4.4117,4.4116,4.4135,4.4139,4.4174,4.4126,4.4121,4.4121,4.4119,4.4146,4.4149,4.4158,4.4208,4.4209,4.4162,4.4164,4.4165,4.4166,0,0,0,0,0,0,0,4.4076,4.4082,4.4139,4.4118,4.4117,4.411,4.4113,4.4145,4.4143,4.4122,4.4119,4.4123,4.4145,4.4155,4.4158,4.421,4.4162,4.4164,4.4166,4.4167,4.4311,4.4313,0,0,0,0,0,0,4.4075,4.408,4.4138,4.414,4.4092,4.4113,4.4116,4.4131,4.4143,4.4143,4.4125,4.4122,4.4151,4.4155,4.4159,4.4226,4.4165,4.4168,4.4169,4.4309,4.4311,4.4314,0,0,0,0,0,0,4.4074,4.4081,4.4137,4.411,4.4116,4.4116,4.4133,4.4132,4.4143,4.4145,4.4145,4.4135,4.415,4.4155,4.4197,4.4227,4.4169,4.4171,4.4306,4.431,4.4313,4.4359,0,0,0,0,0,0,4.4071,4.408,4.41,4.411,4.4118,4.4173,4.4135,4.4134,4.4148,4.4144,4.4155,4.4155,4.4149,4.4193,4.4199,4.4229,4.4174,4.4304,4.4308,4.4312,4.4354,4.4363,4.437,0,0,0,0,0,4.4069,4.411,4.4101,4.4108,4.4142,4.4175,4.4179,4.4172,4.415,4.4171,4.4173,4.4155,4.4222,4.4197,4.4204,4.4236,4.4302,4.4307,4.4311,4.4351,4.4361,4.437,0,0,0,0,0,0,4.4102,4.4111,4.4101,4.4147,4.4161,4.4169,4.4195,4.4182,4.4202,4.4197,4.4187,4.419,4.4234,4.4239,4.4211,4.4291,4.4259,4.4265,4.4286,4.4296,4.4304,4.4302,4.4176,0,0,0,0,0,4.4115,4.414,4.4147,4.4187,4.4195,4.4194,4.4208,4.4201,4.4215,4.422,4.4225,4.4239,4.4264,4.428,4.4303,4.4355,4.4359,4.4381,4.4389,4.4395,4.4401,4.4434,4.4445,4.4329,4.4329,4.4329,0,0,4.4141,4.4149,4.4166,4.4194,4.4204,4.4233,4.4199,4.4229,4.425,4.4224,4.4265,4.427,4.4285,4.4333,4.4355,4.4338,4.4434,4.4402,4.4407,4.4409,4.444,4.4451,4.4461,4.4333,4.4332,4.4332,0,0,4.4204,4.4212,4.4248,4.426,4.4276,4.4276,4.4285,4.4297,4.4299,4.434,4.4323,4.4348,4.439,4.4403,4.4414,4.4488,4.4473,4.4496,4.4537,4.4569,4.4578,4.4586,4.4615,4.4626,4.4501,4.4502,4.4502,0,4.4234,4.4276,4.4268,4.4301,4.4316,4.4296,4.4334,4.4345,4.4368,4.4379,4.436,4.4416,4.4424,4.4477,4.4496,4.4505,4.4517,4.4494,4.4578,4.4586,4.4593,4.4621,4.4631,4.4504,4.4504,4.4504,4.4503,0,4.4314,4.4344,4.4371,4.4396,4.4413,4.4449,4.4448,4.4467,4.446,4.4462,4.4506,4.4516,4.4543,4.4555,4.4547,4.4608,4.4598,4.4579,4.4546,4.4607,4.4633,4.4643,4.4508,4.4507,4.4507,4.4506,0,0,4.4396,4.442,4.443,4.4443,4.4461,4.4484,4.452,4.4548,4.4566,4.4583,4.4614,4.4652,4.4636,4.465,4.4644,4.4672,4.4734,4.465,4.465,4.4667,4.4806,4.4822,4.4834,4.4725,4.4726,4.4728,4.4806,0,4.4462,4.4524,4.4521,4.458,4.4609,4.4593,4.4625,4.4641,4.4645,4.4671,4.4676,4.4704,4.4679,4.4688,4.4715,4.4721,4.4762,4.4715,4.4755,4.4757,4.4754,4.4847,4.4863,4.4936,4.4816,4.4818,4.4819,0,4.4545,4.4569,4.4631,4.465,4.4662,4.4691,4.4718,4.4742,4.4762,4.4763,4.4781,4.4772,4.4811,4.4777,4.4832,4.48,4.4817,4.4823,4.4825,4.483,4.4792,4.4856,4.4958,4.497,4.4834,4.4833,4.4832,0,4.4603,4.4649,4.4694,4.4705,4.4727,4.4748,4.4759,4.4776,4.4794,4.4818,4.483,4.4857,4.4873,4.4895,4.4895,4.487,4.4952,4.4917,4.4956,4.4956,4.4974,4.4973,4.5082,4.4982,4.4982,4.4981,4.4981,0,4.4677,4.4717,4.4721,4.4748,4.4794,4.479,4.4835,4.4843,4.486,4.489,4.4877,4.4906,4.4903,4.4933,4.4933,4.498,4.4986,4.499,4.499,4.4992,4.4992,4.5004,4.4999,4.4984,4.4984,4.4983,4.4983,0,4.4748,4.4752,4.48,4.4819,4.4824,4.4857,4.4874,4.4901,4.4906,4.4945,4.4954,4.4961,4.4996,4.4998,4.5037,4.5037,4.5096,4.5089,4.509,4.5089,4.5129,4.5126,4.5251,4.5268,4.5155,4.5156,4.5157,0,4.4795,4.4826,4.485,4.487,4.4882,4.4914,4.4933,4.4932,4.4953,4.498,4.5005,4.5039,4.5066,4.5123,4.5132,4.5164,4.5159,4.5201,4.5163,4.5166,4.5163,4.5162,4.5166,4.5208,4.5209,4.521,4.5211,0,4.4881,4.4883,4.4911,4.4943,4.4967,4.4991,4.5013,4.5031,4.5033,4.5057,4.5094,4.5115,4.5158,4.5193,4.5224,4.5236,4.5225,4.5223,4.5234,4.5237,4.5238,4.5241,4.5112,4.522,4.5219,4.5218,4.5218,4.5218,4.4944,4.4972,4.4994,4.5028,4.5046,4.5068,4.5096,4.5106,4.5136,4.5172,4.5169,4.5211,4.5233,4.5275,4.5289,4.5322,4.5308,4.5323,4.5328,4.5332,4.5338,4.5232,4.5328,4.5327,4.5327,4.5327,4.5327,0,4.5031,4.5045,4.5077,4.511,4.5138,4.5126,4.5152,4.5176,4.5213,4.5235,4.5263,4.5307,4.5342,4.5356,4.5391,4.5415,4.5412,4.5425,4.5423,4.5427,4.5346,4.5335,4.5427,4.5427,4.5427,4.5427,4.5427,4.5427,4.508,4.5129,4.5134,4.5192,4.5206,4.5248,4.5264,4.5286,4.5304,4.5354,4.5384,4.5393,4.5413,4.545,4.5483,4.5486,4.55,4.5516,4.5518,4.5442,4.5432,4.5423,4.5412,4.5519,4.5519,4.5596,4.5597,4.5597]},{"header":{"parameterUnit":"m.s-1","parameterCategory":1,"la1":30.2991,"la2":30.254,"lo1":-89.0895,"lo2":-89.0444,"dy":0.0017,"dx":0.0017,"nx":28,"ny":28,"refTime":"2024-03-08T03:00:00:Z","depth":0,"parameterNumber":3,"parameterNumberName":"V-component_of_WINDS"},"data":[0,0,0,0,0,0,0,0,0,0,0,0,0,0,0,0,0,0,0,0,0,0,0,0,0,0,0,0,0,0,0,0,0,0,0,0,0,0,0,0,0,0,0,0,0,0,0,0,0,0,0,0,0,0,0,0,0,0,-3.3188,-3.3186,0,-3.3026,-3.3024,-3.3023,-3.3009,-3.3011,-3.3013,-3.3014,-3.2835,-3.2829,-3.2822,0,0,0,0,0,0,0,0,0,0,0,0,0,-3.3473,-3.3467,-3.3188,-3.3186,-3.3184,-3.3027,-3.3024,-3.3022,-3.3009,-3.3011,-3.3013,-3.3015,-3.2837,-3.2829,-3.2822,0,0,0,0,0,0,0,0,0,0,0,0,0,-3.3333,-3.3466,-3.3188,-3.3159,-3.3155,-3.3027,-3.3024,-3.3021,-3.3008,-3.3011,-3.3014,-3.3016,-3.284,-3.283,-3.2821,-3.2707,0,0,-3.2791,-3.2787,0,0,0,0,0,0,0,0,-3.3341,-3.3323,-3.3165,-3.3161,-3.3156,-3.3041,-3.3059,-3.2916,-3.3008,-3.3063,-3.3014,-3.3018,-3.29,-3.2886,-3.2849,-3.2699,-3.2691,-3.279,-3.2784,-3.278,-3.2778,0,0,0,0,0,0,0,-3.3351,-3.333,-3.3124,-3.3163,-3.3157,-3.3149,-3.3133,-3.3032,-3.2968,-3.3059,-3.3058,-3.3039,-3.2898,-3.2859,-3.2845,-3.2689,-3.2791,-3.2782,-3.2776,-3.2772,-3.2436,-3.2433,0,0,0,0,0,0,-3.3368,-3.3338,-3.3129,-3.3119,-3.3257,-3.3142,-3.3123,-3.3075,-3.297,-3.2956,-3.3037,-3.3039,-3.2874,-3.2856,-3.2839,-3.2698,-3.278,-3.2771,-3.2766,-3.2439,-3.2435,-3.2432,0,0,0,0,0,0,-3.3374,-3.335,-3.3135,-3.3228,-3.32,-3.3135,-3.308,-3.307,-3.3031,-3.2953,-3.2941,-3.3009,-3.2875,-3.2852,-3.2741,-3.2692,-3.2767,-3.2758,-3.2443,-3.2438,-3.2433,-3.2418,0,0,0,0,0,0,-3.3383,-3.3352,-3.3311,-3.3227,-3.3195,-3.3044,-3.3077,-3.3065,-3.3016,-3.3017,-3.2924,-3.2911,-3.2876,-3.2755,-3.2731,-3.268,-3.2751,-3.2447,-3.244,-3.2435,-3.2422,-3.2413,-3.2405,0,0,0,0,0,-3.3393,-3.331,-3.3309,-3.3284,-3.3144,-3.3041,-3.3023,-3.2988,-3.3012,-3.2968,-3.2919,-3.2914,-3.2702,-3.2744,-3.2717,-3.2662,-3.2449,-3.2442,-3.2435,-3.2426,-3.2415,-3.2405,0,0,0,0,0,0,-3.3385,-3.3299,-3.3296,-3.3185,-3.3122,-3.304,-3.2983,-3.2977,-3.2901,-3.2905,-3.2861,-3.284,-3.273,-3.2684,-3.2733,-3.2546,-3.2578,-3.2565,-3.258,-3.2568,-3.256,-3.2572,-3.2743,0,0,0,0,0,-3.3371,-3.33,-3.3226,-3.3135,-3.3103,-3.3049,-3.3003,-3.2983,-3.2912,-3.2884,-3.2826,-3.2754,-3.2672,-3.2618,-3.2537,-3.2416,-3.2394,-3.2365,-3.2356,-3.235,-3.2338,-3.2269,-3.2255,-3.2409,-3.2409,-3.2409,0,0,-3.334,-3.3284,-3.324,-3.3132,-3.308,-3.3003,-3.3026,-3.2943,-3.2885,-3.287,-3.2762,-3.2717,-3.2634,-3.2518,-3.2463,-3.2476,-3.2291,-3.2341,-3.2336,-3.2328,-3.2261,-3.2246,-3.2233,-3.2404,-3.2405,-3.2405,0,0,-3.3244,-3.3196,-3.3114,-3.3063,-3.2986,-3.295,-3.2931,-3.285,-3.2821,-3.2714,-3.2701,-3.2628,-3.2487,-3.2429,-3.238,-3.2264,-3.2255,-3.2238,-3.2193,-3.2126,-3.2114,-3.2103,-3.206,-3.2045,-3.2228,-3.2228,-3.2228,0,-3.3213,-3.3101,-3.3072,-3.299,-3.2942,-3.293,-3.2845,-3.2795,-3.2693,-3.2658,-3.2676,-3.25,-3.2443,-3.2312,-3.2284,-3.2246,-3.2219,-3.2248,-3.2119,-3.2108,-3.2097,-3.2055,-3.2039,-3.2226,-3.2226,-3.2226,-3.2227,0,-3.3067,-3.2989,-3.2932,-3.284,-3.2785,-3.2702,-3.2656,-3.2603,-3.2587,-3.2549,-3.2438,-3.2371,-3.2276,-3.2244,-3.2225,-3.211,-3.212,-3.2129,-3.2159,-3.2081,-3.2041,-3.2025,-3.2224,-3.2224,-3.2225,-3.2225,0,0,-3.2959,-3.2854,-3.2833,-3.2792,-3.2706,-3.2643,-3.2559,-3.2471,-3.2426,-3.2356,-3.2282,-3.2164,-3.2172,-3.2117,-3.2092,-3.2034,-3.1944,-3.2049,-3.2047,-3.2031,-3.181,-3.1803,-3.1785,-3.1939,-3.1936,-3.1934,-3.1817,0,-3.2852,-3.2707,-3.2678,-3.255,-3.2476,-3.2465,-3.239,-3.2328,-3.229,-3.2218,-3.2174,-3.2091,-3.2109,-3.2076,-3.2018,-3.1968,-3.1899,-3.1976,-3.1865,-3.1862,-3.1886,-3.1765,-3.1757,-3.165,-3.1801,-3.1798,-3.1796,0,-3.2708,-3.264,-3.2506,-3.2432,-3.2399,-3.2334,-3.2252,-3.2185,-3.2113,-3.2089,-3.2029,-3.2011,-3.1918,-3.1955,-3.1825,-3.1878,-3.1831,-3.1799,-3.1794,-3.1781,-3.1823,-3.1746,-3.1615,-3.1598,-3.1772,-3.1774,-3.1775,0,-3.2641,-3.2516,-3.242,-3.2384,-3.2295,-3.2249,-3.2209,-3.214,-3.2089,-3.2015,-3.1982,-3.1896,-3.1849,-3.1782,-3.1739,-3.1771,-3.1612,-3.1645,-3.1586,-3.1587,-3.1551,-3.1554,-3.1409,-3.1524,-3.1525,-3.1525,-3.1525,0,-3.2524,-3.2441,-3.2389,-3.2329,-3.2236,-3.2203,-3.211,-3.2069,-3.2008,-3.1937,-3.192,-3.1853,-3.1803,-3.1728,-3.1693,-3.159,-3.1569,-3.1544,-3.1535,-3.1545,-3.1548,-3.1512,-3.1517,-3.1521,-3.1521,-3.1522,-3.1523,0,-3.2432,-3.2394,-3.2288,-3.2215,-3.2194,-3.2128,-3.2062,-3.2002,-3.1965,-3.1876,-3.1852,-3.1792,-3.1703,-3.1656,-3.1542,-3.1519,-3.1403,-3.1399,-3.1429,-3.1425,-3.1368,-3.1373,-3.1193,-3.1167,-3.1301,-3.13,-3.1299,0,-3.2359,-3.2297,-3.2218,-3.2172,-3.2132,-3.2058,-3.2007,-3.1971,-3.1919,-3.1833,-3.1782,-3.1693,-3.162,-3.1477,-3.142,-3.1333,-3.1326,-3.1269,-3.1312,-3.1323,-3.1323,-3.1327,-3.1319,-3.126,-3.1259,-3.1258,-3.1257,0,-3.2233,-3.2218,-3.2149,-3.2073,-3.2015,-3.1952,-3.1889,-3.1851,-3.1804,-3.1745,-3.1657,-3.16,-3.1487,-3.1398,-3.1307,-3.126,-3.1249,-3.1245,-3.1226,-3.1233,-3.1253,-3.124,-3.1406,-3.1248,-3.1249,-3.125,-3.125,-3.1251,-3.2147,-3.2091,-3.2028,-3.1951,-3.1901,-3.1843,-3.1784,-3.1741,-3.1668,-3.1577,-3.1559,-3.1465,-3.1392,-3.127,-3.1221,-3.1144,-3.1155,-3.1128,-3.1121,-3.1114,-3.1112,-3.1268,-3.1127,-3.1127,-3.1127,-3.1128,-3.1128,0,-3.2019,-3.1979,-3.1909,-3.1825,-3.1763,-3.1765,-3.1695,-3.1642,-3.1562,-3.1498,-3.1428,-3.1325,-3.1239,-3.1177,-3.1088,-3.1037,-3.103,-3.1015,-3.1017,-3.1006,-3.1108,-3.1132,-3.1022,-3.1023,-3.1023,-3.1023,-3.1023,-3.1023,-3.1945,-3.1851,-3.1828,-3.1707,-3.1666,-3.1577,-3.1538,-3.1483,-3.1432,-3.132,-3.1251,-3.1213,-3.1148,-3.1055,-3.0974,-3.0958,-3.0925,-3.091,-3.0893,-3.0988,-3.0999,-3.101,-3.1032,-3.0904,-3.0903,-3.0797,-3.0796,-3.0796]}]]